Weather History for KIYA - September, 2012

Change the Weather History Date:

Saturday, September 1, 2012

  Actual Average (KARA) Record (KARA)
Temperature  
Mean Temperature 84 °F 82 °F  
Max Temperature 91 °F 91 °F 102 °F (2000)
Min Temperature 77 °F 73 °F 66 °F (2006)
Degree Days  
Heating Degree Days 0 0  
Month to date heating degree days 0  
Since 1 July heating degree days 0  
Cooling Degree Days 19 17  
Month to date cooling degree days 17  
Year to date cooling degree days 2160  
Growing Degree Days 34 (Base 50)    
Moisture  
Dew Point 79 °F    
Average Humidity 92    
Maximum Humidity 100    
Minimum Humidity 70    
Precipitation  
Precipitation 0.00 in 0.16 in 5.11 in (2008)
Month to date precipitation 0.16  
Year to date precipitation 41.01  
Sea Level Pressure  
Sea Level Pressure 30.09 in    
Wind  
Wind Speed 4 mph ()    
Max Wind Speed 15 mph    
Max Gust Speed 20 mph    
Visibility 9.9 miles    
Events Rain , Thunderstorm    
T = Trace of Precipitation, MM = Missing Value Source: Averaged Metar Reports

Daily Weather History Graph

Daily Weather History Graph

Search for Another Location

Airport or City:

Trip Planner

Search our weather history database for the weather conditions in past years. The results will help you decide how hot, cold, wet, or windy it might be!

Date:

Astronomy

Sep. 01, 2012 Rise Set
Actual Time 6:45 AM CDT 7:30 PM CDT
Civil Twilight 6:21 AM CDT 7:54 PM CDT
Nautical Twilight 5:52 AM CDT 8:23 PM CDT
Astronomical Twilight 5:23 AM CDT 8:52 PM CDT
Moon 7:59 PM CDT (9/1) 7:43 AM CDT (9/1)
Length of Visible Light 13h 33m
Length of Day
12h 44m
Full, 99% of the Moon is Illuminated
Sep 1
Full
Sep 8
Last Quarter
Sep 15
New
Sep 22
First Quarter
Sep 29
Full

Hourly Weather History & Observations

Time (CDT) Temp. Heat Index Dew Point Humidity Pressure Visibility Wind Dir Wind Speed Gust Speed Precip Events Conditions
12:15 AM 78.8 °F - 78.8 °F 100% 30.08 in 10.0 mi SE 4.6 mph - N/A   Clear
12:35 AM 78.8 °F - 78.8 °F 100% 30.08 in 10.0 mi SE 4.6 mph - N/A   Scattered Clouds
12:55 AM 78.8 °F - 78.8 °F 100% 30.08 in 10.0 mi ESE 3.5 mph - N/A   Clear
1:15 AM 80.6 °F 89.3 °F 80.6 °F 100% 30.08 in 10.0 mi SE 5.8 mph - N/A   Mostly Cloudy
1:35 AM 80.6 °F 89.3 °F 80.6 °F 100% 30.08 in 10.0 mi SE 4.6 mph - N/A   Scattered Clouds
1:55 AM 80.6 °F 89.3 °F 80.6 °F 100% 30.08 in 10.0 mi Calm Calm - N/A   Clear
2:15 AM 80.6 °F 89.3 °F 80.6 °F 100% 30.08 in 10.0 mi SE 5.8 mph - N/A   Clear
2:35 AM 80.6 °F 89.3 °F 80.6 °F 100% 30.07 in 10.0 mi SSE 6.9 mph - N/A   Mostly Cloudy
2:55 AM 80.6 °F 89.3 °F 80.6 °F 100% 30.07 in 10.0 mi South 3.5 mph - N/A   Light Drizzle
3:15 AM 80.6 °F 89.3 °F 80.6 °F 100% 30.07 in 10.0 mi SE 3.5 mph - N/A Rain Light Rain
3:35 AM 80.6 °F 89.3 °F 80.6 °F 100% 30.07 in 10.0 mi Calm Calm - N/A   Scattered Clouds
3:55 AM 80.6 °F 89.3 °F 80.6 °F 100% 30.08 in 10.0 mi Calm Calm - N/A   Mostly Cloudy
4:15 AM 78.8 °F - 78.8 °F 100% 30.07 in 7.0 mi South 4.6 mph - N/A Rain Light Rain
4:35 AM 78.8 °F - 78.8 °F 100% 30.07 in 10.0 mi SE 4.6 mph - N/A   Mostly Cloudy
4:55 AM 78.8 °F - 78.8 °F 100% 30.07 in 10.0 mi SE 3.5 mph - N/A   Light Drizzle
5:15 AM 78.8 °F - 78.8 °F 100% 30.07 in 10.0 mi SSE 10.4 mph - N/A   Mostly Cloudy
5:35 AM 78.8 °F - 77.0 °F 94% 30.08 in 10.0 mi SSE 5.8 mph - N/A   Clear
5:55 AM 77.0 °F - 77.0 °F 100% 30.08 in 10.0 mi SSE 4.6 mph - N/A   Clear
6:15 AM 77.0 °F - 77.0 °F 100% 30.09 in 10.0 mi SE 3.5 mph - N/A   Clear
6:35 AM 77.0 °F - 77.0 °F 100% 30.10 in 10.0 mi SE 3.5 mph - N/A   Clear
6:55 AM 77.0 °F - 77.0 °F 100% 30.10 in 10.0 mi Calm Calm - N/A   Clear
7:15 AM 77.0 °F - 77.0 °F 100% 30.10 in 10.0 mi Calm Calm - N/A   Clear
7:35 AM 78.8 °F - 78.8 °F 100% 30.11 in 10.0 mi Calm Calm - N/A   Clear
7:55 AM 78.8 °F - 78.8 °F 100% 30.11 in 10.0 mi Calm Calm - N/A   Clear
8:15 AM 80.6 °F 89.3 °F 80.6 °F 100% 30.11 in 10.0 mi Calm Calm - N/A   Clear
8:35 AM 80.6 °F 89.3 °F 80.6 °F 100% 30.11 in 10.0 mi SSE 3.5 mph - N/A   Clear
8:55 AM 82.4 °F 94.0 °F 80.6 °F 94% 30.12 in 10.0 mi SSE 4.6 mph - N/A   Clear
9:15 AM 84.2 °F 98.3 °F 80.6 °F 89% 30.12 in 10.0 mi South 9.2 mph - N/A   Clear
9:35 AM 86.0 °F 101.9 °F 80.6 °F 84% 30.12 in 10.0 mi South 6.9 mph - N/A   Mostly Cloudy
9:55 AM 87.8 °F 104.9 °F 80.6 °F 79% 30.13 in 10.0 mi South 10.4 mph - N/A   Mostly Cloudy
10:15 AM 87.8 °F 102.5 °F 78.8 °F 75% 30.13 in 10.0 mi South 11.5 mph - N/A   Mostly Cloudy
10:35 AM 87.8 °F 102.5 °F 78.8 °F 75% 30.13 in 10.0 mi South 10.4 mph - N/A   Scattered Clouds
10:55 AM 87.8 °F 102.5 °F 78.8 °F 75% 30.13 in 10.0 mi South 9.2 mph - N/A   Clear
11:15 AM 89.6 °F 104.7 °F 78.8 °F 70% 30.13 in 10.0 mi South 9.2 mph - N/A   Clear
11:35 AM 89.6 °F 104.7 °F 78.8 °F 70% 30.13 in 10.0 mi South 10.4 mph - N/A   Scattered Clouds
11:55 AM 91.4 °F 111.0 °F 80.6 °F 71% 30.13 in 10.0 mi South 9.2 mph - N/A   Mostly Cloudy
12:15 PM 89.6 °F 104.7 °F 78.8 °F 70% 30.12 in 10.0 mi South 10.4 mph 17.3 mph N/A   Mostly Cloudy
12:35 PM 89.6 °F 104.7 °F 78.8 °F 70% 30.11 in 10.0 mi SSE 15.0 mph 19.6 mph N/A   Scattered Clouds
12:55 PM 89.6 °F 104.7 °F 78.8 °F 70% 30.11 in 10.0 mi SSE 12.7 mph - N/A Thunderstorm Mostly Cloudy
1:15 PM 89.6 °F 104.7 °F 78.8 °F 70% 30.10 in 10.0 mi SSE 12.7 mph 19.6 mph N/A Thunderstorm Mostly Cloudy
1:35 PM 89.6 °F 108.2 °F 80.6 °F 75% 30.10 in 10.0 mi South 10.4 mph 19.6 mph N/A   Mostly Cloudy
2:15 PM 87.8 °F 102.5 °F 78.8 °F 75% 30.10 in 10.0 mi NNE 4.6 mph - N/A Thunderstorm Thunderstorm
2:35 PM 82.4 °F 92.4 °F 78.8 °F 89% 30.10 in 10.0 mi NNE 9.2 mph - N/A Thunderstorm Thunderstorm
3:15 PM 80.6 °F 87.1 °F 77.0 °F 89% 30.08 in 10.0 mi North 6.9 mph - N/A   Overcast
3:35 PM 80.6 °F 87.1 °F 77.0 °F 89% 30.08 in 10.0 mi North 5.8 mph - N/A Thunderstorm Overcast
4:15 PM 80.6 °F 87.1 °F 77.0 °F 89% 30.08 in 10.0 mi NNW 8.1 mph - N/A Thunderstorm Mostly Cloudy
4:35 PM 80.6 °F 86.2 °F 75.2 °F 84% 30.08 in 10.0 mi Calm Calm - N/A Thunderstorm Scattered Clouds
4:55 PM 80.6 °F 87.1 °F 77.0 °F 89% 30.08 in 10.0 mi Calm Calm - N/A   Scattered Clouds
5:15 PM 80.6 °F 87.1 °F 77.0 °F 89% 30.08 in 10.0 mi Calm Calm - N/A   Scattered Clouds
5:35 PM 80.6 °F 87.1 °F 77.0 °F 89% 30.08 in 10.0 mi Calm Calm - N/A Thunderstorm Thunderstorm
5:55 PM 80.6 °F 87.1 °F 77.0 °F 89% 30.08 in 10.0 mi NNE 4.6 mph - N/A   Mostly Cloudy
6:15 PM 80.6 °F 87.1 °F 77.0 °F 89% 30.08 in 10.0 mi Calm Calm - N/A   Overcast
6:35 PM 80.6 °F 88.1 °F 78.8 °F 94% 30.08 in 10.0 mi Calm Calm - N/A   Overcast
6:55 PM 80.6 °F 88.1 °F 78.8 °F 94% 30.07 in 10.0 mi NW 4.6 mph - N/A   Mostly Cloudy
7:15 PM 80.6 °F 88.1 °F 78.8 °F 94% 30.07 in 10.0 mi Calm Calm - N/A   Mostly Cloudy
7:35 PM 78.8 °F - 78.8 °F 100% 30.07 in 10.0 mi NNE 3.5 mph - N/A   Scattered Clouds
7:55 PM 78.8 °F - 78.8 °F 100% 30.07 in 10.0 mi Calm Calm - N/A   Scattered Clouds
8:15 PM 78.8 °F - 78.8 °F 100% 30.06 in 10.0 mi Calm Calm - N/A   Clear
8:35 PM 78.8 °F - 78.8 °F 100% 30.06 in 10.0 mi Calm Calm - N/A   Clear
8:55 PM 78.8 °F - 78.8 °F 100% 30.06 in 10.0 mi East 3.5 mph - N/A   Clear
9:15 PM 78.8 °F - 78.8 °F 100% 30.06 in 10.0 mi Calm Calm - N/A   Clear
9:35 PM 78.8 °F - 78.8 °F 100% 30.07 in 10.0 mi Calm Calm - N/A   Clear
9:55 PM 78.8 °F - 78.8 °F 100% 30.08 in 10.0 mi Calm Calm - N/A   Clear
10:15 PM 78.8 °F - 78.8 °F 100% 30.08 in 10.0 mi Calm Calm - N/A   Clear
10:35 PM 78.8 °F - 78.8 °F 100% 30.07 in 10.0 mi SE 3.5 mph - N/A   Clear
10:55 PM 78.8 °F - 78.8 °F 100% 30.08 in 10.0 mi SSE 3.5 mph - N/A   Clear
11:15 PM 80.6 °F 89.3 °F 80.6 °F 100% 30.08 in 10.0 mi Calm Calm - N/A   Clear
11:35 PM 78.8 °F - 78.8 °F 100% 30.08 in 7.0 mi Calm Calm - N/A   Clear
11:55 PM 78.8 °F - 78.8 °F 100% 30.07 in 10.0 mi SSE 3.5 mph - N/A   Clear